This demonstration page uses our WeatherBlox Daily Observations layout. Learn more.

Left ArrowRight Arrow

44.8408, -93.29828

Hourly Observations for April 24, 2022

Temp ( °F °C ) Dew Point ( °F °C ) Humidity (%) Winds ( mph kmh ) Pressure ( in mb ) Visibility ( mi km ) Precip ( " mm )
12:19 am 00:19 Mostly Cloudy 56 13.3 41 5 57 57 SW 22 35 29.47 998 10 16 0.00 0.00
12:53 am 00:53 Mostly Cloudy 53 11.7 35 1.7 51 51 SW 23 37 29.47 998 10 16 0.00 0.00
1:53 am 01:53 Clear 50 10 30 -1.1 46 46 SW 17 28 29.50 999 10 16 0.00 0.00
2:53 am 02:53 Clear 47 8.3 27 -2.8 46 46 SSW 12 19 29.49 999 10 16 0.00 0.00
3:53 am 03:53 Clear 46 7.8 29 -1.7 51 51 SSW 12 19 29.48 998 10 16 0.00 0.00
4:53 am 04:53 Clear 46 7.8 30 -1.1 54 54 S 17 28 29.47 998 10 16 0.00 0.00
5:53 am 05:53 Clear 45 7.2 33 0.6 63 63 SSW 22 35 29.47 998 10 16 0.00 0.00
6:53 am 06:53 Partly Cloudy 44 6.7 33 0.6 65 65 S 15 24 29.49 999 10 16 0.00 0.00
7:53 am 07:53 Cloudy 44 6.7 32 0 63 63 SSW 20 31 29.49 999 10 16 0.00 0.00
8:53 am 08:53 Cloudy 44 6.7 32 0 63 63 SSW 15 24 29.50 999 10 16 0.00 0.00
9:53 am 09:53 Cloudy 44 6.7 32 0 63 63 SW 21 33 29.52 1000 10 16 0.00 0.00
10:43 am 10:43 Cloudy 44 6.7 32 0 63 63 SSW 18 30 29.55 1001 10 16 0.00 0.00
10:53 am 10:53 Cloudy 44 6.7 32 0 63 63 SSW 22 35 29.54 1000 10 16 0.00 0.00
11:53 am 11:53 Cloudy 45 7.2 33 0.6 63 63 SSW 18 30 29.56 1001 10 16 0.00 0.00
12:34 pm 12:34 Cloudy 47 8.3 34 1.1 61 61 SSW 22 35 29.58 1002 10 16 0.00 0.00
12:53 pm 12:53 Cloudy 47 8.3 34 1.1 61 61 SW 22 35 29.57 1001 10 16 0.00 0.00
1:53 pm 13:53 Cloudy with Light Rain 46 7.8 40 4.4 79 79 WSW 20 31 29.60 1002 10 16 0.00 0.00
2:21 pm 14:21 Cloudy 47 8.3 38 3.3 71 71 SW 18 30 29.61 1003 10 16 0.00 0.00
2:53 pm 14:53 Cloudy 49 9.4 36 2.2 61 61 WSW 17 28 29.61 1003 10 16 0.00 0.00
3:53 pm 15:53 Cloudy 49 9.4 34 1.1 56 56 WSW 26 43 29.62 1003 10 16 0.00 0.00
4:53 pm 16:53 Cloudy 48 8.9 35 1.7 61 61 W 26 43 29.67 1005 10 16 0.00 0.00
5:53 pm 17:53 Cloudy with Light Rain 45 7.2 32 0 61 61 W 33 54 29.71 1006 10 16 0.00 0.00
6:53 pm 18:53 Cloudy 44 6.7 30 -1.1 58 58 W 24 39 29.75 1008 10 16 0.00 0.00
7:53 pm 19:53 Cloudy 43 6.1 31 -0.6 63 63 W 22 35 29.79 1009 10 16 0.00 0.00
8:53 pm 20:53 Cloudy 42 5.6 30 -1.1 62 62 WNW 24 39 29.83 1010 10 16 0.00 0.00
9:53 pm 21:53 Cloudy 39 3.9 28 -2.2 65 65 W 23 37 29.87 1012 10 16 0.00 0.00
10:53 pm 22:53 Cloudy 38 3.3 27 -2.8 65 65 WNW 18 30 29.88 1012 10 16 0.00 0.00
11:03 pm 23:03 Cloudy 38 3.3 28 -2.2 68 68 W 16 26 29.90 1013 10 16 0.00 0.00
11:53 pm 23:53 Cloudy 37 2.8 28 -2.2 70 70 W 20 31 29.90 1012 10 16 0.00 0.00

Powered by AerisWeather